Regional Weather Roundup
Issued by NWS

Home | Current Version | Previous Version | Graphics & Text | Print | Product List | Glossary On
Versions: 1 2 3 4 5 6 7 8 9 10 11 12 13 14 15 16 17 18 19 20 21 22 23 24 25 26 27 28 29 30 31 32 33 34 35 36 37 38 39 40 41 42 43 44 45 46 47 48 49 50
791
ASUS43 KMKX 100800
RWRWI

WISCONSIN REGIONAL WEATHER ROUNDUP
NATIONAL WEATHER SERVICE MILWAUKEE/SULLIVAN WI
200 AM CST WED FEB 10 2016

NOTE: "FAIR" INDICATES FEW OR NO CLOUDS BELOW 12,000 FEET WITH NO
SIGNIFICANT WEATHER AND/OR OBSTRUCTIONS TO VISIBILITY.

WIZ001-002-006>008-014>016-023>028-100900-
NORTHWEST WISCONSIN

CITY           SKY/WX    TMP DP  RH WIND       PRES   REMARKS
SUPERIOR ARPT  CLOUDY    -1  -7  78 NW8       30.14S WCI -16
ASHLAND        CLOUDY     5  -1  76 N10       30.07F WCI -10
HAYWARD        CLOUDY     3  -3  76 NW5       30.04F WCI  -6
SIREN          PTCLDY    -4 -10  77 NW5       30.11S WCI -15
CUMBERLAND     CLOUDY     0  -8  71 N8        30.05F WCI -15
RICE LAKE      CLOUDY     2  -5  72 NW7       30.08F WCI -10
CHETEK         CLOUDY    -1  -7  78 MISG      30.07F
LADYSMITH      CLOUDY     1  -4  79 NW7       30.03F WCI -11
EAU CLAIRE     PTCLDY     2  -7  66 NW8       30.07F WCI -12
MENOMONIE      CLOUDY     4  -7  62 NW9       30.09F WCI -11
NEW RICHMOND   PTCLDY     1  -6  72 NW7       30.11S WCI -12
OSCEOLA        PTCLDY     4  -4  69 NW3       30.15S
$$

WIZ003>005-009-010-017-018-100900-
NORTH CENTRAL WISCONSIN

CITY           SKY/WX    TMP DP  RH WIND       PRES   REMARKS
MANITOWISH WTR LGT SNOW   4   0  83 N3        29.92S
ARBOR VITAE    CLOUDY     6   0  77 NW7       29.91F WCI  -6
WOODRUFF       CLOUDY     6   0  77 NW7       29.91F WCI  -6
RHINELANDER    CLOUDY     6  -5  60 N8        29.91S WCI  -7
EAGLE RIVER    CLOUDY     4  -4  68 N7        29.90S WCI  -8
LAND O LAKES   FLURRIES   5   0  79 N8        29.91S WCI  -9
PHILLIPS       CLOUDY     4  -2  78 NW6       29.96S WCI  -7
TOMAHAWK       CLOUDY     5   0  79 NW7       29.94S WCI  -7
MEDFORD        CLOUDY     5  -2  72 NW10      29.95S WCI -10
MERRILL        FLURRIES   7   1  76 NW6       29.95S WCI  -3
$$

WIZ029-030-035-036-043>047-100900-
CENTRAL WISCONSIN

CITY           SKY/WX    TMP DP  RH WIND       PRES   REMARKS
WAUSAU         CLOUDY     9  -1  64 N9G21     29.94S WCI  -4
MOSINEE        CLOUDY     9   1  72 NW7       29.96S WCI  -3
MARSHFIELD     MOCLDY     7  -4  60 NW15      29.97R WCI -10
STEVENS POINT  CLOUDY     8  -2  63 NW7       29.96S WCI  -3
WAUPACA        CLOUDY    13   0  56 N10G17    29.97R WCI   0
WAUTOMA        NOT AVBL
WISC RAPIDS    CLOUDY     9  -2  61 NW12      30.00R WCI  -6
CAMP DOUGLAS   NOT AVBL
$$

WIZ011>013-019>022-031-037>040-048>050-100900-
NORTHEAST WISCONSIN

CITY           SKY/WX    TMP DP  RH WIND       PRES   REMARKS
ANTIGO         CLOUDY     6  -2  68 N15       29.90S WCI -12
SHAWANO        CLOUDY    13  -1  54 N12G18    29.96R WCI  -1
OCONTO         CLEAR      9  -3  57 NW9       29.94S WCI  -4
STURGEON BAY   PTCLDY     9  -2  61 NW16G23   29.92R WCI  -9
GREEN BAY      CLEAR      9  -3  58 NW12      29.94S WCI  -6
MANITOWOC      NOT AVBL
APPLETON       CLOUDY    12  -2  52 NW10      29.91F WCI  -1
CLINTONVILLE   CLOUDY    12  -4  48 N8G22     29.95F WCI   1
OSHKOSH        MOCLDY    11   0  61 NW14      29.94S WCI  -5
$$

WIZ032>034-041-042-053>061-100900-
SOUTHWEST WISCONSIN

CITY           SKY/WX    TMP DP  RH WIND       PRES   REMARKS
LA CROSSE      PTCLDY     4  -6  63 NW12      30.09S WCI -12
SPARTA         MOCLDY     5  -4  67 NW8       30.08R WCI  -9
VIROQUA        PTCLDY     3  -6  66 NW14      30.02R WCI -15
BOSCOBEL       PTCLDY     1  -5  75 W3        30.09R
PRAIRIE DU CHI PTCLDY     5  -5  63 NW6       30.09S WCI  -6
PLATTEVILLE    CLEAR      5  -2  72 NW8       30.02F WCI  -8
$$

WIZ056-057-062-063-064-067-068-100900-
SOUTH CENTRAL WISCONSIN

CITY           SKY/WX    TMP DP  RH WIND       PRES   REMARKS
REEDSBURG      CLOUDY     7  -1  70 W8        30.01S WCI  -5
BARABOO/DELLS  CLOUDY     8   0  69 NW6       29.99S WCI  -2
LONE ROCK      NOT AVBL
MINERAL POINT  CLEAR      7   0  72 NW6       29.99F WCI  -3
MADISON        CLOUDY    10  -1  61 NW9       29.98F WCI  -3
MIDDLETON      CLOUDY    11   2  67 NW8       29.99F WCI   0
WATERTOWN      PTCLDY    10   1  68 NW9       29.95F WCI  -4
MONROE         MOCLDY     9   1  72 NW10G17   29.97F WCI  -6
JANESVILLE     CLOUDY    12   1  62 N10       29.98F WCI  -1
$$

WIZ051-052-058>065-066-070>072-100900-
SOUTHEAST WISCONSIN

CITY           SKY/WX    TMP DP  RH WIND       PRES   REMARKS
MILWAUKEE      MOCLDY    12   1  61 NW13      29.94S WCI  -3
WAUKESHA       CLEAR      9   1  72 NW13      29.94S WCI  -7
MILWAUKEE/TIMM PTCLDY    10   1  67 NW12      29.94F WCI  -4
RACINE         CLOUDY    12   1  61 NW10      29.96R WCI  -1
BURLINGTON     PTCLDY     8  -1  66 NW12      29.95S WCI  -7
KENOSHA        CLOUDY    12   2  64 NW10      29.94S WCI  -1
FOND DU LAC    CLEAR     10   0  63 NW10      29.95S WCI  -4
SHEBOYGAN      CLEAR     10  -2  58 NW14      29.92S WCI  -6
WEST BEND      CLEAR     10   1  67 CALM      29.92F
JUNEAU         CLEAR      8  -1  66 NW8       29.95F WCI  -4
$$

LSZ147-162-100900-
LAKE SUPERIOR

STATION/POSITION TIME  TEMP    WIND        PRES    WAVE
                       AIR SEA DIR/SP/G            HT/PER
                 (UTC) (F)     (DEG/KT/KT) (MB)    (FT/S)
DEVILS ISLAND    0700    6     350/ 18/ 22 1020.7F
PORT WING        0600    7      10/  7/ 15 1019.6F
SAXON HARBOR     0700    9                 1017.6
$$

LMZ867-665-643>646-100900-
LAKE MICHIGAN

STATION/POSITION TIME  TEMP    WIND        PRES    WAVE
                       AIR SEA DIR/SP/G            HT/PER
                 (UTC) (F)     (DEG/KT/KT) (MB)    (FT/S)
CHAMBERS ISLAND  0700   11     300/ 17/ 25 1012.5R
ALGOMA LAKESHORE 0711          320/ 14/ 20   N/A
KEWAUNEE LAKESHO 0700   11     310/ 12/ 20 1012.1R
SHEBOYGAN LAKESH 0700   13     310/ 16/ 21 1014.7R
PORT WASHINGTON  0700   13     310/  9/ 14 1014.6S
MILWAUKEE LAKESH 0710   14     310/ 10/ 14   N/A
KENOSHA   LAKESH 0700   13     310/ 13/ 17 1013.9R
$$

TC  - TEMPERATURE IN CELSIUS
VSB - VISIBILITY IN STATUTE MILES
WCI - WIND CHILL INDEX
HX  - HEAT INDEX





USA.gov is the U.S. government's official web portal to all federal, state and local government web resources and services.